TimeCST,TemperatureF,Dew PointF,Humidity,Sea Level PressureIn,VisibilityMPH,Wind Direction,Wind SpeedMPH,Gust SpeedMPH,PrecipitationIn,Events,Conditions,WindDirDegrees,DateUTC
12:52 AM,30.0,21.0,69,30.17,-9999.0,SE,16.1,-,N/A,,Unknown,130,2012-12-05 06:52:00
1:52 AM,30.0,21.0,69,30.13,-9999.0,SE,16.1,-,N/A,,Unknown,130,2012-12-05 07:52:00
2:52 AM,30.0,21.9,72,30.12,-9999.0,SE,15.0,23.0,N/A,,Unknown,140,2012-12-05 08:52:00
3:52 AM,30.0,21.9,72,30.10,-9999.0,SE,16.1,-,N/A,,Unknown,130,2012-12-05 09:52:00
4:52 AM,28.9,21.0,72,30.07,-9999.0,SE,15.0,-,N/A,,Unknown,130,2012-12-05 10:52:00
5:52 AM,28.9,21.0,72,30.05,-9999.0,SE,12.7,-,N/A,,Unknown,130,2012-12-05 11:52:00
6:52 AM,28.0,21.0,75,30.04,-9999.0,SE,11.5,-,N/A,,Unknown,140,2012-12-05 12:52:00
8:52 AM,32.0,21.9,66,29.99,-9999.0,SE,10.4,-,N/A,,Unknown,140,2012-12-05 14:52:00
9:52 AM,37.9,21.9,53,29.96,-9999.0,SE,10.4,-,N/A,,Unknown,140,2012-12-05 15:52:00
10:52 AM,45.0,21.9,40,29.92,-9999.0,South,13.8,-,N/A,,Unknown,170,2012-12-05 16:52:00
11:52 AM,50.0,21.0,32,29.85,-9999.0,SSE,16.1,-,N/A,,Unknown,160,2012-12-05 17:52:00
12:52 PM,55.0,24.1,30,29.78,-9999.0,SSE,15.0,-,N/A,,Unknown,160,2012-12-05 18:52:00
1:52 PM,57.0,24.1,28,29.75,-9999.0,SSE,15.0,-,N/A,,Unknown,150,2012-12-05 19:52:00
2:52 PM,57.9,23.0,26,29.71,-9999.0,SE,13.8,-,N/A,,Unknown,130,2012-12-05 20:52:00
3:52 PM,60.1,24.1,25,29.69,-9999.0,SSE,13.8,-,N/A,,Unknown,160,2012-12-05 21:52:00
4:52 PM,53.1,25.0,34,29.68,-9999.0,SE,6.9,-,N/A,,Unknown,130,2012-12-05 22:52:00
5:52 PM,53.1,25.0,34,29.67,-9999.0,SSE,8.1,-,N/A,,Unknown,160,2012-12-05 23:52:00
6:52 PM,55.0,25.0,31,29.66,-9999.0,SSW,11.5,-,N/A,,Unknown,200,2012-12-06 00:52:00
7:52 PM,52.0,25.0,35,29.68,-9999.0,SW,10.4,-,N/A,,Unknown,230,2012-12-06 01:52:00
8:52 PM,51.1,25.0,36,29.69,-9999.0,West,10.4,-,N/A,,Unknown,260,2012-12-06 02:52:00
9:52 PM,50.0,27.0,41,29.70,-9999.0,WNW,9.2,-,N/A,,Unknown,290,2012-12-06 03:52:00
10:52 PM,48.9,26.1,41,29.72,-9999.0,NW,16.1,-,N/A,,Unknown,310,2012-12-06 04:52:00
11:52 PM,46.0,27.0,47,29.74,-9999.0,WNW,10.4,-,N/A,,Unknown,300,2012-12-06 05:52:00